Dades meteomassalio
Diari Summary for Abril 22, 2017 Units:  Metric    English   Both
« Previous Day
Next Day »
Diari Semanal Mensual Anual Personalitzat
  Maxima: Minima: Mijana:
Temperatura: 22.5 °C -0.1 °C 11.7 °C
Rosada: 7.2 °C -4.7 °C 0.8 °C
Humitat: 77 % 21 % 52 %
Velocitat del vent: 20.4 km/h 0.0 km/h 3.1 km/h
Racha vent: 20.4 km/h - -
Vent:- - East
Pressio: 1028.3 hPa 1019.5 hPa -
Pluja: 0.0 mm    
Historical Graphs
 
 
Tabular Data for Abril 22, 2017
Time Temperature Dew Point Pressure Wind Wind Speed Wind Gust Humidity Rainfall Rate (Hourly) solar Conditions
00:00 7.9 °C -0.3 °C 1028.3 hPa Calm     56 % 0.0 mm 0.0 W/m2 CLR
00:05 7.7 °C -0.3 °C 1028.3 hPa Calm     57 % 0.0 mm 0.0 W/m2 CLR
00:10 7.7 °C -0.1 °C 1028.3 hPa Calm     58 % 0.0 mm 0.0 W/m2 CLR
00:15 7.7 °C -0.3 °C 1028.3 hPa Calm     57 % 0.0 mm 0.0 W/m2 CLR
00:20 7.6 °C -0.4 °C 1028.3 hPa Calm     57 % 0.0 mm 0.0 W/m2 CLR
00:25 7.3 °C -0.4 °C 1028.3 hPa Calm     58 % 0.0 mm 0.0 W/m2 CLR
00:30 6.9 °C -0.8 °C 1028.3 hPa Calm     58 % 0.0 mm 0.0 W/m2 CLR
00:35 6.6 °C -0.7 °C 1028.3 hPa Calm     60 % 0.0 mm 0.0 W/m2 CLR
00:40 6.3 °C -0.7 °C 1028.3 hPa Calm     61 % 0.0 mm 0.0 W/m2 CLR
00:45 6.1 °C -0.9 °C 1028.3 hPa Calm     61 % 0.0 mm 0.0 W/m2 CLR
00:50 5.8 °C -0.9 °C 1028.3 hPa Calm     62 % 0.0 mm 0.0 W/m2 CLR
00:55 5.5 °C -1.0 °C 1028.3 hPa Calm     63 % 0.0 mm 0.0 W/m2 CLR
01:00 5.3 °C -0.9 °C 1028.3 hPa Calm     64 % 0.0 mm 0.0 W/m2 CLR
01:05 5.3 °C -0.8 °C 1028.3 hPa Calm     65 % 0.0 mm 0.0 W/m2 CLR
01:10 5.2 °C -0.9 °C 1028.3 hPa Calm     65 % 0.0 mm 0.0 W/m2 CLR
01:15 5.1 °C -1.0 °C 1028.3 hPa Calm     65 % 0.0 mm 0.0 W/m2 CLR
01:20 4.9 °C -0.9 °C 1028.3 hPa Calm     66 % 0.0 mm 0.0 W/m2 CLR
01:21 4.9 °C -0.9 °C 1028.3 hPa Calm     66 % 0.0 mm 0.0 W/m2 CLR
01:26 4.8 °C -1.1 °C 1028.3 hPa Calm     66 % 0.0 mm 0.0 W/m2 CLR
01:27 4.7 °C -1.1 °C 1028.3 hPa Calm     66 % 0.0 mm 0.0 W/m2 CLR
01:32 4.6 °C -1.1 °C 1028.3 hPa Calm     67 % 0.0 mm 0.0 W/m2 CLR
01:37 4.4 °C -1.2 °C 1028.3 hPa Calm     67 % 0.0 mm 0.0 W/m2 CLR
01:42 4.3 °C -1.1 °C 1028.3 hPa Calm     68 % 0.0 mm 0.0 W/m2 CLR
01:47 4.2 °C -1.2 °C 1028.3 hPa Calm     68 % 0.0 mm 0.0 W/m2 CLR
01:52 4.0 °C -1.2 °C 1028.3 hPa Calm     69 % 0.0 mm 0.0 W/m2 CLR
01:57 3.9 °C -1.3 °C 1028.3 hPa Calm     69 % 0.0 mm 0.0 W/m2 CLR
02:02 3.8 °C -1.2 °C 1028.3 hPa Calm     70 % 0.0 mm 0.0 W/m2 CLR
02:07 3.6 °C -1.4 °C 1028.3 hPa Calm     70 % 0.0 mm 0.0 W/m2 CLR
02:12 3.4 °C -1.5 °C 1028.3 hPa Calm     70 % 0.0 mm 0.0 W/m2 CLR
02:17 3.3 °C -1.5 °C 1028.3 hPa Calm     71 % 0.0 mm 0.0 W/m2 CLR
02:22 3.2 °C -1.6 °C 1028.3 hPa Calm     71 % 0.0 mm 0.0 W/m2 CLR
02:27 3.1 °C -1.4 °C 1028.0 hPa Calm     72 % 0.0 mm 0.0 W/m2 CLR
02:32 3.1 °C -1.5 °C 1028.0 hPa Calm     72 % 0.0 mm 0.0 W/m2 CLR
02:37 2.9 °C -1.6 °C 1028.0 hPa Calm     72 % 0.0 mm 0.0 W/m2 CLR
02:42 2.8 °C -1.7 °C 1028.0 hPa Calm     72 % 0.0 mm 0.0 W/m2 CLR
02:47 2.7 °C -1.8 °C 1028.0 hPa Calm     72 % 0.0 mm 0.0 W/m2 CLR
02:52 2.7 °C -1.5 °C 1028.0 hPa Calm     74 % 0.0 mm 0.0 W/m2 CLR
02:57 2.7 °C -1.3 °C 1027.7 hPa Calm     75 % 0.0 mm 0.0 W/m2 CLR
03:02 2.7 °C -1.3 °C 1027.7 hPa Calm     75 % 0.0 mm 0.0 W/m2 CLR
03:07 2.7 °C -1.4 °C 1027.7 hPa Calm     74 % 0.0 mm 0.0 W/m2 CLR
03:12 2.5 °C -1.8 °C 1027.7 hPa Calm     73 % 0.0 mm 0.0 W/m2 CLR
03:17 2.3 °C -2.0 °C 1027.7 hPa Calm     73 % 0.0 mm 0.0 W/m2 CLR
03:22 2.3 °C -1.9 °C 1027.7 hPa Calm     74 % 0.0 mm 0.0 W/m2 CLR
03:27 2.2 °C -1.9 °C 1027.7 hPa Calm     74 % 0.0 mm 0.0 W/m2 CLR
03:32 2.1 °C -2.1 °C 1027.3 hPa Calm     74 % 0.0 mm 0.0 W/m2 CLR
03:37 2.1 °C -2.1 °C 1027.3 hPa Calm     74 % 0.0 mm 0.0 W/m2 CLR
03:42 1.9 °C -2.2 °C 1027.3 hPa Calm     74 % 0.0 mm 0.0 W/m2 CLR
03:47 1.8 °C -2.3 °C 1027.3 hPa Calm     74 % 0.0 mm 0.0 W/m2 CLR
03:52 1.7 °C -2.4 °C 1027.3 hPa Calm     74 % 0.0 mm 0.0 W/m2 CLR
03:57 1.7 °C -2.3 °C 1027.0 hPa Calm     75 % 0.0 mm 0.0 W/m2 CLR
04:02 1.6 °C -2.4 °C 1027.0 hPa Calm     75 % 0.0 mm 0.0 W/m2 CLR
04:07 1.4 °C -2.4 °C 1027.3 hPa Calm     76 % 0.0 mm 0.0 W/m2 CLR
04:12 1.3 °C -2.6 °C 1027.3 hPa Calm     75 % 0.0 mm 0.0 W/m2 CLR
04:17 1.2 °C -2.7 °C 1027.3 hPa Calm     75 % 0.0 mm 0.0 W/m2 CLR
04:22 1.2 °C -2.7 °C 1027.3 hPa Calm     75 % 0.0 mm 0.0 W/m2 CLR
04:27 1.2 °C -2.8 °C 1027.3 hPa Calm     75 % 0.0 mm 0.0 W/m2 CLR
04:32 1.1 °C -2.7 °C 1027.3 hPa Calm     76 % 0.0 mm 0.0 W/m2 CLR
04:37 0.9 °C -2.8 °C 1027.3 hPa Calm     76 % 0.0 mm 0.0 W/m2 CLR
04:42 0.8 °C -3.1 °C 1027.3 hPa Calm     75 % 0.0 mm 0.0 W/m2 CLR
04:47 0.8 °C -3.2 °C 1027.3 hPa Calm     75 % 0.0 mm 0.0 W/m2 CLR
04:52 0.7 °C -3.4 °C 1027.3 hPa Calm     74 % 0.0 mm 0.0 W/m2 CLR
04:57 0.7 °C -3.4 °C 1027.3 hPa Calm     74 % 0.0 mm 0.0 W/m2 CLR
05:02 0.7 °C -3.4 °C 1027.3 hPa Calm     74 % 0.0 mm 0.0 W/m2 CLR
05:07 0.7 °C -3.4 °C 1027.3 hPa Calm     74 % 0.0 mm 0.0 W/m2 CLR
05:12 0.6 °C -3.5 °C 1027.3 hPa Calm     74 % 0.0 mm 0.0 W/m2 CLR
05:17 0.6 °C -3.5 °C 1027.3 hPa Calm     74 % 0.0 mm 0.0 W/m2 CLR
05:22 0.6 °C -3.6 °C 1027.0 hPa Calm     74 % 0.0 mm 0.0 W/m2 CLR
05:27 0.5 °C -3.4 °C 1027.3 hPa Calm     75 % 0.0 mm 0.0 W/m2 CLR
05:32 0.4 °C -3.6 °C 1027.0 hPa Calm     75 % 0.0 mm 0.0 W/m2 CLR
05:37 0.3 °C -3.4 °C 1027.0 hPa Calm     76 % 0.0 mm 0.0 W/m2 CLR
05:42 0.2 °C -3.5 °C 1027.0 hPa Calm     76 % 0.0 mm 0.0 W/m2 CLR
05:47 0.1 °C -3.7 °C 1027.0 hPa Calm     76 % 0.0 mm 0.0 W/m2 CLR
05:52 -0.1 °C -3.8 °C 1027.0 hPa Calm     76 % 0.0 mm 0.0 W/m2 CLR
05:57 -0.1 °C -3.8 °C 1027.0 hPa Calm     76 % 0.0 mm 0.0 W/m2 CLR
06:03 -0.1 °C -3.7 °C 1027.0 hPa Calm     77 % 0.0 mm 0.0 W/m2 CLR
06:08 -0.1 °C -3.8 °C 1027.0 hPa Calm     76 % 0.0 mm 0.0 W/m2 CLR
06:13 0.1 °C -3.8 °C 1027.0 hPa Calm     75 % 0.0 mm 0.0 W/m2 CLR
06:18 0.1 °C -3.8 °C 1027.3 hPa Calm     75 % 0.0 mm 0.0 W/m2 CLR
06:23 0.1 °C -3.8 °C 1027.3 hPa Calm     75 % 0.0 mm 0.0 W/m2 CLR
06:28 0.1 °C -3.8 °C 1027.3 hPa Calm     75 % 0.0 mm 0.0 W/m2 CLR
06:33 0.1 °C -4.1 °C 1027.3 hPa Calm     74 % 0.0 mm 0.0 W/m2 CLR
06:38 0.1 °C -4.1 °C 1027.3 hPa Calm     74 % 0.0 mm 0.0 W/m2 CLR
06:43 0.0 °C -4.3 °C 1027.3 hPa Calm     73 % 0.0 mm 0.0 W/m2 CLR
06:48 0.0 °C -4.1 °C 1027.3 hPa Calm     74 % 0.0 mm 0.0 W/m2 CLR
06:53 0.0 °C -4.1 °C 1027.3 hPa Calm     74 % 0.0 mm 0.0 W/m2 CLR
06:58 0.0 °C -4.3 °C 1027.3 hPa Calm     73 % 0.0 mm 0.0 W/m2 CLR
07:03 0.0 °C -4.1 °C 1027.3 hPa Calm     74 % 0.0 mm 0.0 W/m2 OVC
07:08 -0.1 °C -4.3 °C 1027.7 hPa Calm     73 % 0.0 mm 0.0 W/m2 OVC
07:13 0.0 °C -4.3 °C 1027.7 hPa Calm     73 % 0.0 mm 5.0 W/m2 OVC
07:18 0.1 °C -4.2 °C 1027.7 hPa Calm     73 % 0.0 mm 9.0 W/m2 BKN
07:23 0.0 °C -4.3 °C 1027.7 hPa Calm     73 % 0.0 mm 11.0 W/m2 BKN
07:28 -0.1 °C -4.3 °C 1027.7 hPa Calm     73 % 0.0 mm 12.0 W/m2 BKN
07:33 -0.1 °C -4.4 °C 1027.7 hPa Calm     73 % 0.0 mm 16.0 W/m2 BKN
07:38 0.0 °C -4.1 °C 1027.7 hPa Calm     74 % 0.0 mm 19.0 W/m2 BKN
07:43 0.2 °C -3.9 °C 1027.7 hPa Calm     74 % 0.0 mm 26.0 W/m2 BKN
07:48 0.4 °C -3.7 °C 1027.7 hPa Calm     74 % 0.0 mm 37.0 W/m2 BKN
07:53 0.7 °C -3.4 °C 1027.7 hPa Calm     74 % 0.0 mm 47.0 W/m2 SCT
07:58 1.0 °C -3.3 °C 1027.7 hPa Calm     73 % 0.0 mm 63.0 W/m2 SCT
08:03 1.2 °C -3.5 °C 1027.7 hPa Calm     71 % 0.0 mm 77.0 W/m2 FEW
08:08 1.4 °C -3.3 °C 1027.7 hPa Calm     71 % 0.0 mm 93.0 W/m2 CLR
08:13 2.0 °C -2.9 °C 1027.7 hPa Calm     70 % 0.0 mm 113.0 W/m2 CLR
08:18 2.4 °C -2.9 °C 1027.7 hPa Calm     68 % 0.0 mm 130.0 W/m2 CLR
08:23 2.8 °C -2.7 °C 1027.7 hPa Calm     67 % 0.0 mm 149.0 W/m2 CLR
08:28 3.1 °C -2.7 °C 1027.7 hPa Calm     66 % 0.0 mm 167.0 W/m2 CLR
08:33 3.5 °C -2.3 °C 1027.7 hPa Calm     66 % 0.0 mm 190.0 W/m2 CLR
08:38 4.1 °C -2.4 °C 1027.7 hPa Calm     63 % 0.0 mm 209.0 W/m2 CLR
08:43 4.3 °C -2.1 °C 1027.7 hPa Calm     63 % 0.0 mm 229.0 W/m2 CLR
08:48 4.7 °C -1.9 °C 1027.7 hPa Calm     62 % 0.0 mm 244.0 W/m2 CLR
08:53 5.1 °C -2.1 °C 1027.3 hPa Calm     60 % 0.0 mm 262.0 W/m2 CLR
08:58 5.3 °C -2.1 °C 1027.3 hPa Calm     59 % 0.0 mm 281.0 W/m2 CLR
09:03 5.7 °C -2.2 °C 1027.3 hPa Calm     57 % 0.0 mm 297.0 W/m2 CLR
09:08 6.1 °C -2.3 °C 1027.3 hPa Calm     55 % 0.0 mm 253.0 W/m2 CLR
09:13 6.5 °C -2.2 °C 1027.3 hPa Calm     54 % 0.0 mm 102.0 W/m2 FEW
09:18 6.9 °C -2.3 °C 1027.3 hPa Calm     52 % 0.0 mm 350.0 W/m2 FEW
09:23 7.4 °C -2.4 °C 1027.0 hPa Calm     50 % 0.0 mm 366.0 W/m2 CLR
09:28 7.8 °C -2.5 °C 1027.0 hPa Calm     48 % 0.0 mm 381.0 W/m2 CLR
09:33 8.3 °C -2.1 °C 1027.0 hPa Calm     48 % 0.0 mm 397.0 W/m2 CLR
09:38 8.7 °C -2.3 °C 1027.0 hPa Calm     46 % 0.0 mm 417.0 W/m2 CLR
09:43 9.2 °C -2.2 °C 1027.0 hPa Calm     45 % 0.0 mm 432.0 W/m2 CLR
09:48 9.6 °C -1.8 °C 1027.0 hPa Calm     45 % 0.0 mm 446.0 W/m2 CLR
09:53 10.0 °C -1.7 °C 1026.6 hPa Calm     44 % 0.0 mm 462.0 W/m2 CLR
09:58 10.3 °C -1.4 °C 1026.6 hPa Calm     44 % 0.0 mm 480.0 W/m2 CLR
10:03 10.8 °C -0.9 °C 1026.6 hPa Calm     44 % 0.0 mm 496.0 W/m2 CLR
10:08 11.3 °C -0.5 °C 1026.6 hPa Calm     44 % 0.0 mm 513.0 W/m2 CLR
10:13 11.9 °C -0.3 °C 1026.6 hPa Calm     43 % 0.0 mm 527.0 W/m2 CLR
10:18 12.2 °C -0.7 °C 1026.6 hPa Calm     41 % 0.0 mm 543.0 W/m2 CLR
10:23 12.5 °C -0.4 °C 1026.6 hPa Calm     41 % 0.0 mm 561.0 W/m2 CLR
10:28 13.1 °C 0.1 °C 1026.3 hPa Calm     41 % 0.0 mm 573.0 W/m2 CLR
10:33 13.5 °C 0.2 °C 1026.3 hPa Calm     40 % 0.0 mm 589.0 W/m2 CLR
10:38 13.7 °C 0.3 °C 1026.3 hPa Calm     40 % 0.0 mm 603.0 W/m2 CLR
10:43 14.0 °C 0.2 °C 1026.3 hPa Calm     39 % 0.0 mm 615.0 W/m2 CLR
10:48 14.1 °C 0.7 °C 1026.3 hPa Calm     40 % 0.0 mm 631.0 W/m2 CLR
10:53 14.3 °C 0.6 °C 1026.0 hPa Calm     39 % 0.0 mm 643.0 W/m2 CLR
10:58 14.4 °C 0.3 °C 1026.3 hPa Calm     38 % 0.0 mm 656.0 W/m2 CLR
11:03 14.7 °C 0.5 °C 1026.0 hPa East 3.7 km/h 3.7 km/h 38 % 0.0 mm 668.0 W/m2 CLR
11:08 14.7 °C 0.2 °C 1026.0 hPa Calm     37 % 0.0 mm 684.0 W/m2 CLR
11:13 14.9 °C 0.3 °C 1026.0 hPa ENE 1.9 km/h   37 % 0.0 mm 694.0 W/m2 CLR
11:18 15.3 °C 0.3 °C 1026.0 hPa ESE 5.6 km/h 5.6 km/h 36 % 0.0 mm 708.0 W/m2 CLR
11:23 15.7 °C -0.2 °C 1025.6 hPa Calm     34 % 0.0 mm 721.0 W/m2 CLR
11:28 16.0 °C 0.1 °C 1026.0 hPa Calm     34 % 0.0 mm 733.0 W/m2 CLR
11:33 16.4 °C -0.4 °C 1025.6 hPa ESE 5.6 km/h 5.6 km/h 32 % 0.0 mm 745.0 W/m2 CLR
11:38 16.3 °C -0.8 °C 1025.6 hPa NE 5.6 km/h 5.6 km/h 31 % 0.0 mm 752.0 W/m2 CLR
11:43 16.4 °C -2.6 °C 1025.6 hPa East 5.6 km/h 5.6 km/h 27 % 0.0 mm 766.0 W/m2 CLR
11:48 16.3 °C -3.8 °C 1025.6 hPa Calm     25 % 0.0 mm 775.0 W/m2 CLR
11:53 16.5 °C -4.7 °C 1025.3 hPa ESE 5.6 km/h 5.6 km/h 23 % 0.0 mm 786.0 W/m2 CLR
11:58 16.7 °C -2.9 °C 1025.3 hPa ESE 5.6 km/h 5.6 km/h 26 % 0.0 mm 796.0 W/m2 CLR
12:03 16.8 °C -2.8 °C 1025.3 hPa ENE 3.7 km/h 3.7 km/h 26 % 0.0 mm 807.0 W/m2 CLR
12:08 16.9 °C -3.3 °C 1025.3 hPa East 3.7 km/h 3.7 km/h 25 % 0.0 mm 814.0 W/m2 CLR
12:13 16.9 °C -3.3 °C 1025.3 hPa Calm     25 % 0.0 mm 824.0 W/m2 CLR
12:18 17.4 °C -3.4 °C 1024.9 hPa Calm     24 % 0.0 mm 833.0 W/m2 CLR
12:23 17.8 °C -4.2 °C 1024.9 hPa ENE 1.9 km/h   22 % 0.0 mm 840.0 W/m2 CLR
12:28 18.0 °C -4.1 °C 1024.9 hPa Calm     22 % 0.0 mm 847.0 W/m2 CLR
12:33 18.2 °C -3.3 °C 1024.6 hPa ENE 3.2 km/h   23 % 0.0 mm 856.0 W/m2 CLR
12:38 18.5 °C -3.1 °C 1024.6 hPa ENE 9.3 km/h 9.3 km/h 23 % 0.0 mm 863.0 W/m2 CLR
12:43 18.3 °C -1.6 °C 1024.6 hPa North 6.4 km/h 6.4 km/h 26 % 0.0 mm 867.0 W/m2 CLR
12:48 18.4 °C -1.4 °C 1024.6 hPa North 6.4 km/h 6.4 km/h 26 % 0.0 mm 870.0 W/m2 CLR
12:53 18.5 °C -1.4 °C 1024.3 hPa Calm   0.8 km/h 26 % 0.0 mm 875.0 W/m2 CLR
12:59 18.7 °C -0.7 °C 1024.3 hPa ENE 9.3 km/h 9.3 km/h 27 % 0.0 mm 882.0 W/m2 CLR
13:04 18.8 °C -0.6 °C 1024.3 hPa ENE 5.6 km/h 5.6 km/h 27 % 0.0 mm 886.0 W/m2 CLR
13:09 19.1 °C -0.4 °C 1024.3 hPa NE 5.6 km/h 5.6 km/h 27 % 0.0 mm 891.0 W/m2 CLR
13:14 19.2 °C -0.8 °C 1023.9 hPa NNW 3.7 km/h   26 % 0.0 mm 893.0 W/m2 CLR
13:19 19.5 °C -0.6 °C 1023.9 hPa ENE 9.3 km/h 9.3 km/h 26 % 0.0 mm 900.0 W/m2 CLR
13:24 19.5 °C -1.1 °C 1023.9 hPa North 7.4 km/h 7.4 km/h 25 % 0.0 mm 905.0 W/m2 CLR
13:29 19.3 °C -1.2 °C 1023.9 hPa North 5.6 km/h 5.6 km/h 25 % 0.0 mm 905.0 W/m2 CLR
13:34 19.5 °C -1.1 °C 1023.6 hPa Calm     25 % 0.0 mm 909.0 W/m2 CLR
13:39 19.8 °C -2.5 °C 1023.6 hPa NE 9.3 km/h   22 % 0.0 mm 912.0 W/m2 CLR
13:44 20.2 °C -2.2 °C 1023.6 hPa NE 8.0 km/h 8.0 km/h 22 % 0.0 mm 912.0 W/m2 CLR
13:49 20.3 °C -1.6 °C 1023.6 hPa NE 9.3 km/h 9.3 km/h 23 % 0.0 mm 914.0 W/m2 CLR
13:54 20.4 °C -2.1 °C 1023.2 hPa North 5.6 km/h 5.6 km/h 22 % 0.0 mm 916.0 W/m2 CLR
13:59 20.4 °C -2.0 °C 1023.2 hPa North 5.6 km/h 5.6 km/h 22 % 0.0 mm 916.0 W/m2 CLR
14:04 20.4 °C -2.1 °C 1023.2 hPa NE 9.7 km/h 9.7 km/h 22 % 0.0 mm 916.0 W/m2 CLR
14:09 20.7 °C -1.8 °C 1023.2 hPa ENE 6.4 km/h 6.4 km/h 22 % 0.0 mm 912.0 W/m2 CLR
14:14 20.8 °C -2.4 °C 1023.2 hPa East 11.3 km/h 11.3 km/h 21 % 0.0 mm 909.0 W/m2 CLR
14:19 20.8 °C -2.3 °C 1022.9 hPa Calm     21 % 0.0 mm 909.0 W/m2 CLR
14:24 21.0 °C -1.6 °C 1022.9 hPa NE 3.7 km/h 3.7 km/h 22 % 0.0 mm 907.0 W/m2 CLR
14:29 21.2 °C -1.4 °C 1022.9 hPa East 9.3 km/h 9.3 km/h 22 % 0.0 mm 907.0 W/m2 CLR
14:34 21.0 °C -1.6 °C 1022.9 hPa ENE 13.0 km/h 13.0 km/h 22 % 0.0 mm 900.0 W/m2 CLR
14:39 21.0 °C -1.6 °C 1022.6 hPa Calm     22 % 0.0 mm 891.0 W/m2 CLR
14:44 21.3 °C -0.1 °C 1022.6 hPa Calm     24 % 0.0 mm 888.0 W/m2 CLR
14:49 21.4 °C -1.2 °C 1022.6 hPa ENE 3.7 km/h   22 % 0.0 mm 889.0 W/m2 CLR
14:54 21.1 °C -0.9 °C 1022.6 hPa East 8.0 km/h 8.0 km/h 23 % 0.0 mm 882.0 W/m2 CLR
14:59 21.1 °C 0.3 °C 1022.6 hPa ESE 11.3 km/h 11.3 km/h 25 % 0.0 mm 879.0 W/m2 CLR
15:04 21.5 °C 0.1 °C 1022.2 hPa SE 11.1 km/h 11.1 km/h 24 % 0.0 mm 874.0 W/m2 CLR
15:09 21.4 °C -0.1 °C 1022.2 hPa East 9.3 km/h 9.3 km/h 24 % 0.0 mm 867.0 W/m2 CLR
15:14 21.4 °C -0.1 °C 1022.2 hPa NNE 5.6 km/h 5.6 km/h 24 % 0.0 mm 861.0 W/m2 CLR
15:19 21.7 °C 0.8 °C 1021.9 hPa ENE 5.6 km/h 5.6 km/h 25 % 0.0 mm 861.0 W/m2 CLR
15:24 21.9 °C 1.5 °C 1021.9 hPa East 12.9 km/h 12.9 km/h 26 % 0.0 mm 851.0 W/m2 CLR
15:29 21.7 °C 0.8 °C 1021.9 hPa SE 13.0 km/h 13.0 km/h 25 % 0.0 mm 842.0 W/m2 CLR
15:34 21.8 °C 0.9 °C 1021.9 hPa NE 5.6 km/h   25 % 0.0 mm 835.0 W/m2 CLR
15:39 21.8 °C 0.9 °C 1021.6 hPa East 7.4 km/h 7.4 km/h 25 % 0.0 mm 828.0 W/m2 CLR
15:44 22.0 °C 2.1 °C 1021.6 hPa ENE 14.8 km/h 14.8 km/h 27 % 0.0 mm 814.0 W/m2 CLR
15:49 22.3 °C 2.4 °C 1021.6 hPa NNE 7.4 km/h 7.4 km/h 27 % 0.0 mm 809.0 W/m2 CLR
15:54 22.5 °C 2.6 °C 1021.6 hPa East 11.1 km/h 11.1 km/h 27 % 0.0 mm 800.0 W/m2 CLR
15:59 22.1 °C 2.2 °C 1021.2 hPa NNW 11.1 km/h 11.1 km/h 27 % 0.0 mm 793.0 W/m2 CLR
16:04 22.1 °C 3.2 °C 1021.2 hPa NNE 9.3 km/h 9.3 km/h 29 % 0.0 mm 784.0 W/m2 CLR
16:09 22.3 °C 2.9 °C 1021.2 hPa NE 13.0 km/h 13.0 km/h 28 % 0.0 mm 770.0 W/m2 CLR
16:14 22.3 °C 4.4 °C 1020.9 hPa ESE 4.8 km/h 4.8 km/h 31 % 0.0 mm 735.0 W/m2 CLR
16:19 22.1 °C 5.1 °C 1020.9 hPa NE 19.3 km/h 19.3 km/h 33 % 0.0 mm 717.0 W/m2 CLR
16:24 22.1 °C 5.1 °C 1020.9 hPa ENE 6.4 km/h 6.4 km/h 33 % 0.0 mm 703.0 W/m2 CLR
16:29 22.1 °C 5.1 °C 1020.9 hPa ENE 18.5 km/h 18.5 km/h 33 % 0.0 mm 731.0 W/m2 CLR
16:34 22.2 °C 5.1 °C 1020.9 hPa NNE 17.7 km/h 17.7 km/h 33 % 0.0 mm 708.0 W/m2 CLR
16:39 22.1 °C 5.5 °C 1020.9 hPa NNE 20.4 km/h 20.4 km/h 34 % 0.0 mm 693.0 W/m2 CLR
16:43 22.2 °C 5.6 °C 1020.5 hPa ENE 5.6 km/h 7.2 km/h 34 % 0.0 mm 696.0 W/m2 CLR
16:48 22.2 °C 5.6 °C 1020.5 hPa NE 9.7 km/h 9.7 km/h 34 % 0.0 mm 687.0 W/m2 CLR
16:53 22.2 °C 6.0 °C 1020.5 hPa NE 20.4 km/h 20.4 km/h 35 % 0.0 mm 663.0 W/m2 CLR
16:58 22.2 °C 6.0 °C 1020.5 hPa NE 18.5 km/h 18.5 km/h 35 % 0.0 mm 650.0 W/m2 CLR
17:03 22.3 °C 6.1 °C 1020.5 hPa Calm     35 % 0.0 mm 629.0 W/m2 CLR
17:08 22.4 °C 6.2 °C 1020.2 hPa East 14.8 km/h 14.8 km/h 35 % 0.0 mm 629.0 W/m2 CLR
17:13 22.3 °C 6.5 °C 1020.2 hPa ENE 8.0 km/h 8.0 km/h 36 % 0.0 mm 612.0 W/m2 CLR
17:18 22.3 °C 5.7 °C 1020.2 hPa NE 7.4 km/h 7.4 km/h 34 % 0.0 mm 598.0 W/m2 CLR
17:23 22.3 °C 6.1 °C 1020.2 hPa NE 16.7 km/h 16.7 km/h 35 % 0.0 mm 580.0 W/m2 CLR
17:28 22.3 °C 6.1 °C 1020.2 hPa East 9.3 km/h 9.3 km/h 35 % 0.0 mm 571.0 W/m2 CLR
17:33 22.2 °C 6.0 °C 1020.2 hPa ENE 14.8 km/h 14.8 km/h 35 % 0.0 mm 554.0 W/m2 CLR
17:38 22.1 °C 6.3 °C 1020.2 hPa NE 20.4 km/h 20.4 km/h 36 % 0.0 mm 543.0 W/m2 CLR
17:43 22.0 °C 6.2 °C 1020.2 hPa ENE 9.3 km/h 9.3 km/h 36 % 0.0 mm 527.0 W/m2 CLR
17:48 22.0 °C 6.6 °C 1019.9 hPa East 5.6 km/h 5.6 km/h 37 % 0.0 mm 506.0 W/m2 CLR
17:53 21.9 °C 6.1 °C 1019.9 hPa East 3.7 km/h 3.7 km/h 36 % 0.0 mm 489.0 W/m2 CLR
17:58 21.8 °C 6.1 °C 1019.9 hPa East 9.7 km/h 9.7 km/h 36 % 0.0 mm 448.0 W/m2 CLR
18:03 21.4 °C 6.1 °C 1019.9 hPa ESE 7.4 km/h 7.4 km/h 37 % 0.0 mm 396.0 W/m2 CLR
18:08 21.3 °C 6.1 °C 1019.9 hPa East 11.1 km/h 11.1 km/h 37 % 0.0 mm 336.0 W/m2 CLR
18:13 21.2 °C 6.7 °C 1019.9 hPa East 5.6 km/h 5.6 km/h 39 % 0.0 mm 322.0 W/m2 CLR
18:18 21.0 °C 6.1 °C 1019.9 hPa East 9.7 km/h 9.7 km/h 38 % 0.0 mm 367.0 W/m2 CLR
18:23 20.9 °C 6.4 °C 1019.9 hPa ESE 14.8 km/h 14.8 km/h 39 % 0.0 mm 352.0 W/m2 CLR
18:28 20.7 °C 6.3 °C 1019.9 hPa East 20.4 km/h 20.4 km/h 39 % 0.0 mm 302.0 W/m2 CLR
18:33 20.6 °C 5.8 °C 1019.9 hPa East 11.1 km/h 11.1 km/h 38 % 0.0 mm 237.0 W/m2 CLR
18:38 20.4 °C 6.0 °C 1019.9 hPa ESE 5.6 km/h 5.6 km/h 39 % 0.0 mm 227.0 W/m2 CLR
18:44 20.4 °C 6.4 °C 1019.9 hPa ESE 7.4 km/h 7.4 km/h 40 % 0.0 mm 272.0 W/m2 CLR
18:49 20.5 °C 6.8 °C 1019.9 hPa ESE 9.3 km/h 9.3 km/h 41 % 0.0 mm 253.0 W/m2 CLR
18:54 20.4 °C 6.7 °C 1019.9 hPa ESE 7.4 km/h 7.4 km/h 41 % 0.0 mm 257.0 W/m2 CLR
18:59 20.2 °C 6.5 °C 1019.9 hPa ESE 14.8 km/h 14.8 km/h 41 % 0.0 mm 230.0 W/m2 CLR
19:04 19.9 °C 6.7 °C 1019.9 hPa ESE 9.3 km/h 9.3 km/h 42 % 0.0 mm 216.0 W/m2 CLR
19:09 19.8 °C 6.9 °C 1019.9 hPa ESE 13.0 km/h 13.0 km/h 43 % 0.0 mm 257.0 W/m2 CLR
19:14 19.5 °C 6.9 °C 1019.9 hPa ESE 11.1 km/h 11.1 km/h 44 % 0.0 mm 248.0 W/m2 CLR
19:19 19.4 °C 7.2 °C 1019.9 hPa ESE 11.1 km/h 11.1 km/h 45 % 0.0 mm 237.0 W/m2 CLR
19:24 19.3 °C 7.1 °C 1019.9 hPa East 8.0 km/h 8.0 km/h 45 % 0.0 mm 200.0 W/m2 CLR
19:29 19.1 °C 6.9 °C 1019.9 hPa East 13.0 km/h 13.0 km/h 45 % 0.0 mm 178.0 W/m2 CLR
19:34 18.8 °C 6.9 °C 1019.9 hPa East 9.3 km/h 9.3 km/h 46 % 0.0 mm 160.0 W/m2 CLR
19:39 18.8 °C 6.9 °C 1019.5 hPa ESE 7.4 km/h 7.4 km/h 46 % 0.0 mm 149.0 W/m2 CLR
19:44 18.7 °C 7.2 °C 1019.5 hPa ESE 5.6 km/h 5.6 km/h 47 % 0.0 mm 98.0 W/m2 CLR
19:49 18.6 °C 7.1 °C 1019.5 hPa ESE 5.6 km/h 5.6 km/h 47 % 0.0 mm 109.0 W/m2 CLR
19:54 18.6 °C 7.0 °C 1019.5 hPa East 5.6 km/h 5.6 km/h 47 % 0.0 mm 88.0 W/m2 CLR
19:59 18.5 °C 6.9 °C 1019.5 hPa ESE 7.4 km/h 7.4 km/h 47 % 0.0 mm 81.0 W/m2 FEW
20:04 18.2 °C 7.0 °C 1019.5 hPa East 5.6 km/h 5.6 km/h 48 % 0.0 mm 58.0 W/m2 SCT
20:09 18.0 °C 6.8 °C 1019.5 hPa ESE 3.7 km/h 3.7 km/h 48 % 0.0 mm 33.0 W/m2 BKN
20:14 17.9 °C 6.7 °C 1019.9 hPa ESE 1.9 km/h 1.9 km/h 48 % 0.0 mm 32.0 W/m2 BKN
20:19 17.7 °C 6.9 °C 1019.5 hPa ESE 5.6 km/h 5.6 km/h 49 % 0.0 mm 21.0 W/m2 BKN
20:24 17.6 °C 6.7 °C 1019.5 hPa ESE 3.2 km/h 3.2 km/h 49 % 0.0 mm 18.0 W/m2 BKN
20:29 17.4 °C 6.8 °C 1019.9 hPa Calm     50 % 0.0 mm 14.0 W/m2 BKN
20:34 17.2 °C 6.7 °C 1019.5 hPa Calm     50 % 0.0 mm 11.0 W/m2 BKN
20:39 17.1 °C 6.8 °C 1019.5 hPa Calm     51 % 0.0 mm 7.0 W/m2 BKN
20:40 17.1 °C 6.8 °C 1019.9 hPa Calm     51 % 0.0 mm 5.0 W/m2 OVC
20:45 16.9 °C 6.7 °C 1019.9 hPa Calm     51 % 0.0 mm 0.0 W/m2 OVC
20:50 16.7 °C 6.8 °C 1019.5 hPa Calm     52 % 0.0 mm 0.0 W/m2 OVC
20:55 16.4 °C 6.6 °C 1019.5 hPa Calm     52 % 0.0 mm 0.0 W/m2 OVC
21:00 16.2 °C 6.6 °C 1019.9 hPa Calm     53 % 0.0 mm 0.0 W/m2 CLR
21:05 16.0 °C 6.7 °C 1019.9 hPa Calm     54 % 0.0 mm 0.0 W/m2 CLR
21:10 15.9 °C 6.6 °C 1019.9 hPa Calm     54 % 0.0 mm 0.0 W/m2 CLR
21:15 15.7 °C 6.4 °C 1019.9 hPa Calm     54 % 0.0 mm 0.0 W/m2 CLR
21:20 15.5 °C 6.5 °C 1019.9 hPa ENE 5.6 km/h 5.6 km/h 55 % 0.0 mm 0.0 W/m2 CLR
21:25 15.3 °C 6.3 °C 1019.9 hPa Calm     55 % 0.0 mm 0.0 W/m2 CLR
21:30 15.1 °C 6.4 °C 1020.2 hPa Calm     56 % 0.0 mm 0.0 W/m2 CLR
21:31 15.1 °C 6.4 °C 1020.2 hPa Calm     56 % 0.0 mm 0.0 W/m2 CLR
21:36 14.9 °C 6.2 °C 1020.2 hPa Calm     56 % 0.0 mm 0.0 W/m2 CLR
21:41 14.8 °C 6.3 °C 1020.2 hPa Calm     57 % 0.0 mm 0.0 W/m2 CLR
21:46 14.6 °C 6.2 °C 1020.2 hPa Calm     57 % 0.0 mm 0.0 W/m2 CLR
21:51 14.5 °C 6.3 °C 1020.2 hPa Calm     58 % 0.0 mm 0.0 W/m2 CLR
21:56 14.3 °C 6.2 °C 1020.5 hPa Calm     58 % 0.0 mm 0.0 W/m2 CLR
22:01 14.2 °C 6.3 °C 1020.5 hPa Calm     59 % 0.0 mm 0.0 W/m2 CLR
22:06 14.1 °C 6.2 °C 1020.5 hPa Calm     59 % 0.0 mm 0.0 W/m2 CLR
22:11 13.9 °C 6.1 °C 1020.5 hPa Calm     59 % 0.0 mm 0.0 W/m2 CLR
22:16 13.8 °C 6.2 °C 1020.5 hPa Calm     60 % 0.0 mm 0.0 W/m2 CLR
22:21 13.7 °C 6.1 °C 1020.5 hPa Calm     60 % 0.0 mm 0.0 W/m2 CLR
22:26 13.6 °C 5.9 °C 1020.9 hPa Calm     60 % 0.0 mm 0.0 W/m2 CLR
22:31 13.4 °C 6.0 °C 1020.9 hPa Calm     61 % 0.0 mm 0.0 W/m2 CLR
22:36 13.3 °C 5.9 °C 1020.9 hPa Calm     61 % 0.0 mm 0.0 W/m2 CLR
22:41 13.2 °C 6.1 °C 1020.9 hPa Calm     62 % 0.0 mm 0.0 W/m2 CLR
22:46 13.1 °C 6.0 °C 1020.9 hPa Calm     62 % 0.0 mm 0.0 W/m2 CLR
22:51 13.0 °C 5.9 °C 1020.9 hPa Calm     62 % 0.0 mm 0.0 W/m2 CLR
22:56 12.9 °C 5.8 °C 1020.9 hPa Calm     62 % 0.0 mm 0.0 W/m2 CLR
23:01 12.8 °C 5.9 °C 1020.9 hPa Calm     63 % 0.0 mm 0.0 W/m2 CLR
23:06 12.7 °C 5.8 °C 1020.9 hPa Calm     63 % 0.0 mm 0.0 W/m2 CLR
23:11 12.6 °C 5.7 °C 1020.9 hPa Calm     63 % 0.0 mm 0.0 W/m2 CLR
23:16 12.3 °C 5.5 °C 1020.9 hPa Calm     63 % 0.0 mm 0.0 W/m2 CLR
23:21 12.2 °C 5.6 °C 1020.9 hPa Calm     64 % 0.0 mm 0.0 W/m2 CLR
23:26 12.1 °C 5.4 °C 1020.9 hPa Calm     64 % 0.0 mm 0.0 W/m2 CLR
23:31 11.9 °C 5.3 °C 1020.9 hPa Calm     64 % 0.0 mm 0.0 W/m2 CLR
23:36 11.7 °C 5.3 °C 1020.9 hPa Calm     65 % 0.0 mm 0.0 W/m2 CLR
23:41 11.5 °C 5.2 °C 1020.9 hPa Calm     65 % 0.0 mm 0.0 W/m2 CLR
23:46 11.1 °C 5.0 °C 1020.9 hPa Calm     66 % 0.0 mm 0.0 W/m2 CLR
23:51 10.9 °C 5.0 °C 1020.9 hPa Calm     67 % 0.0 mm 0.0 W/m2 CLR
23:56 10.8 °C 5.1 °C 1020.9 hPa Calm     68 % 0.0 mm 0.0 W/m2 CLR
Lo Temps de Massalio
Compliments of Weather Underground - 1.25 mb